Terug naar catalogus

FENGYUN 1C DEB

ActiefPO
NORAD 31095·DEBRIS·🇨🇳 China

Gelanceerd May 10, 1999 vanaf Taiyuan Satellite Launch Center

Loading…

Volgende Passages (komende 24 uur)

TLE

VersSource: Space-Track

Epoch: Sep 13, 2026, 04:45 UTC

1 31095U 99025BGR 26256.19856924  .00000109  00000-0  23853-3 0  9992
2 31095  98.5879 349.4862 0498324 254.9054  99.6428 13.06753485930328

Volg FENGYUN 1C DEB in realtime met AllMySat

Download on the App Store